Tracking 18665 objects as of 22-June-2017
HD Live streaming from Space Station
objects crossing your sky now

COSMOS 1596

Track COSMOS 1596 now!
COSMOS 1596 is classified as:


NORAD ID: 15267
Int'l Code: 1984-096A
Perigee: 4,718.7 km
Apogee: 35,654.9 km
Inclination: 68.1 °
Period: 717.9 minutes
Semi major axis: 26557 km
RCS: 8.4284 m2 (large)
Launch date: September 7, 1984
Source: Commonwealth of Independent States (former USSR) (CIS)
Launch site: PLESETSK MISSILE AND SPACE COMPLEX (PKMTR)
Your satellite tracking list
Your tracking list is empty





NASA's NSSDC Master Catalog

Two Line Element Set (TLE):
1 15267U 84096A   17172.81998007 -.00000851 +00000-0 -25623+0 0  9991
2 15267 068.1376 002.1446 5824307 089.1510 319.2462 02.00592327240164
Source of the keplerian elements: AFSPC